Regional Weather Roundup
Issued by NWS

Home | Current Version | Previous Version | Graphics & Text | Print | Product List | Glossary On
Versions: 1 2 3 4 5 6 7 8 9 10 11 12 13 14 15 16 17 18 19 20 21 22 23 24 25 26 27 28 29 30 31 32 33 34 35 36 37 38 39 40 41 42 43 44 45 46 47 48 49 50
000
ASUS43 KLSX 261707
RWRMO

WEATHER SUMMARY FOR MISSOURI
NATIONAL WEATHER SERVICE SPRINGFIELD MO
1200 PM CDT THU APR 26 2018

NOTE: "FAIR" INDICATES FEW OR NO CLOUDS BELOW 12,000 FEET WITH NO
       SIGNIFICANT WEATHER AND/OR OBSTRUCTIONS TO VISIBILITY.
       CURRENT SKY AND/OR WEATHER CONDITIONS ARE NOT AVAILABLE FOR
       CHILLICOTHE AND FARMINGTON.

MOZ001>031-035>038-043-044-053-054-261800-
...NORTHERN AND WESTERN MISSOURI...

CITY           SKY/WX    TMP DP  RH WIND       PRES   REMARKS
KANSAS CTY INT PTSUNNY   59  42  53 SW10      30.01F
KANSAS C DTWN  SUNNY     60  41  49 CALM      30.01S
LEE`S SUMMIT   SUNNY     59  43  55 SW6       30.01F
ST JOSEPH      CLOUDY    61  43  51 W7        30.01S
CHILLICOTHE      N/A     62  38  40 VRB3      30.00S
KIRKSVILLE     SUNNY     64  33  31 CALM      29.97F

$$
MOZ066>068-077>081-088>096-101>105-261800-
...SOUTHWEST MISSOURI...

CITY           SKY/WX    TMP DP  RH WIND       PRES   REMARKS
SPRINGFIELD    CLOUDY    56  47  71 NW7       30.01S
JOPLIN         CLOUDY    53  48  83 N7        30.05F
BRANSON        CLOUDY    54  50  87 N10       30.02R

$$
MOZ032>034-039>042-045>050-055>058-069>072-261800-
...CENTRAL MISSOURI...

CITY           SKY/WX    TMP DP  RH WIND       PRES   REMARKS
COLUMBIA       CLOUDY    64  44  48 N8        29.98S
JEFFERSON CITY SUNNY     61  46  57 SW5       29.98F
ROLLA          MOSUNNY   59  47  64 VRB6      29.99F
SEDALIA        SUNNY     62  44  51 N8        30.01S
WARRENSBURG    MOSUNNY   59  41  51 N6        30.01F
OSAGE BEACH    MOSUNNY   60  47  61 VRB3      30.01S

$$
MOZ051-052-059>065-261800-
...EAST CENTRAL MISSOURI...

CITY           SKY/WX    TMP DP  RH WIND       PRES   REMARKS
ST LOUIS INTL  MOSUNNY   64  36  35 CALM      29.96F
SPIRIT OF STL  MOSUNNY   65  42  43 VRB6      29.95F
ST CHARLES     SUNNY     66  39  37 CALM      29.95F

$$
MOZ072>076-082>087-097>100-106>115-261800-
...SOUTH CENTRAL AND SOUTHEAST MISSOURI...

CITY           SKY/WX    TMP DP  RH WIND       PRES   REMARKS
CAPE GIRARDEAU CLOUDY    61  44  53 NE13      29.93S
FARMINGTON     CLOUDY    54  45  71 N3        29.98R
POPLAR BLUFF   CLOUDY    58  47  66 N9        29.94R
WEST PLAINS    CLOUDY    57  47  69 N9        29.99R

$$




USA.gov is the U.S. government's official web portal to all federal, state and local government web resources and services.